Time,TemperatureF,DewpointF,PressureIn,WindDirection,WindDirectionDegrees,WindSpeedMPH,WindSpeedGustMPH,Humidity,HourlyPrecipIn,Conditions,Clouds,dailyrainin,SoftwareType,DateUTC
2013-02-05 00:00:00,38.5,32.2,29.96,WNW,301,1.0,1.0,78,0.00,,,0.00,Wunderground v.1.15,2013-02-05 05:00:00,
2013-02-05 00:01:00,38.6,32.3,29.96,WNW,301,0.0,1.0,78,0.00,,,0.00,Wunderground v.1.15,2013-02-05 05:01:00,
2013-02-05 00:02:00,38.7,32.1,29.96,WNW,301,0.0,1.0,77,0.00,,,0.00,Wunderground v.1.15,2013-02-05 05:02:00,
2013-02-05 00:03:00,38.7,32.1,29.96,WNW,301,0.0,1.0,77,0.00,,,0.00,Wunderground v.1.15,2013-02-05 05:03:00,
2013-02-05 00:08:00,39.0,32.7,29.96,WNW,301,0.0,2.0,78,0.00,,,0.00,Wunderground v.1.15,2013-02-05 05:08:00,
2013-02-05 00:13:00,38.8,32.5,29.96,SW,227,1.0,3.0,78,0.00,,,0.00,Wunderground v.1.15,2013-02-05 05:13:00,
2013-02-05 00:19:00,38.2,33.2,29.96,SW,227,0.0,3.0,82,0.00,,,0.00,Wunderground v.1.15,2013-02-05 05:19:00,
2013-02-05 00:24:00,37.8,33.4,29.96,SW,227,0.0,1.0,84,0.00,,,0.00,Wunderground v.1.15,2013-02-05 05:24:00,
2013-02-05 00:30:00,37.5,33.4,29.95,SW,227,0.0,0.0,85,0.00,,,0.00,Wunderground v.1.15,2013-02-05 05:30:00,
2013-02-05 00:35:00,37.5,33.7,29.95,SW,227,0.0,1.0,86,0.00,,,0.00,Wunderground v.1.15,2013-02-05 05:35:00,
2013-02-05 00:41:00,37.4,33.9,29.95,SW,227,0.0,0.0,87,0.00,,,0.00,Wunderground v.1.15,2013-02-05 05:41:00,
2013-02-05 00:46:00,37.5,33.7,29.95,SW,227,0.0,1.0,86,0.00,,,0.00,Wunderground v.1.15,2013-02-05 05:46:00,
2013-02-05 00:51:00,37.7,33.9,29.95,SW,227,0.0,1.0,86,0.00,,,0.00,Wunderground v.1.15,2013-02-05 05:51:00,
2013-02-05 00:57:00,37.8,34.3,29.95,SW,227,0.0,1.0,87,0.00,,,0.00,Wunderground v.1.15,2013-02-05 05:57:00,
2013-02-05 01:03:00,37.9,34.4,29.95,SW,227,0.0,0.0,87,0.00,,,0.00,Wunderground v.1.15,2013-02-05 06:03:00,
2013-02-05 01:08:00,38.0,34.5,29.95,SW,227,0.0,0.0,87,0.00,,,0.00,Wunderground v.1.15,2013-02-05 06:08:00,
2013-02-05 01:13:00,38.0,34.2,29.95,SW,227,0.0,0.0,86,0.00,,,0.00,Wunderground v.1.15,2013-02-05 06:13:00,
2013-02-05 01:19:00,38.2,33.8,29.95,West,268,1.0,2.0,84,0.00,,,0.00,Wunderground v.1.15,2013-02-05 06:19:00,
2013-02-05 01:24:00,38.3,33.6,29.95,West,273,1.0,2.0,83,0.00,,,0.00,Wunderground v.1.15,2013-02-05 06:24:00,
2013-02-05 01:29:00,38.7,33.1,29.95,WNW,284,1.0,2.0,80,0.00,,,0.00,Wunderground v.1.15,2013-02-05 06:29:00,
2013-02-05 01:35:00,39.2,33.2,29.95,WNW,284,1.0,2.0,79,0.00,,,0.00,Wunderground v.1.15,2013-02-05 06:35:00,
2013-02-05 01:41:00,39.0,33.7,29.94,SSW,201,0.0,1.0,81,0.00,,,0.00,Wunderground v.1.15,2013-02-05 06:41:00,
2013-02-05 01:46:00,38.5,33.8,29.94,SSW,196,0.0,1.0,83,0.00,,,0.00,Wunderground v.1.15,2013-02-05 06:46:00,
2013-02-05 01:52:00,38.3,34.2,29.95,SSW,196,0.0,0.0,85,0.00,,,0.00,Wunderground v.1.15,2013-02-05 06:52:00,
2013-02-05 01:57:00,38.3,34.2,29.94,SSW,196,0.0,0.0,85,0.00,,,0.00,Wunderground v.1.15,2013-02-05 06:57:00,
2013-02-05 02:03:00,38.8,33.5,29.95,SSW,196,0.0,1.0,81,0.00,,,0.00,Wunderground v.1.15,2013-02-05 07:03:00,
2013-02-05 02:08:00,39.7,33.1,29.95,SW,225,1.0,2.0,77,0.00,,,0.00,Wunderground v.1.15,2013-02-05 07:08:00,
2013-02-05 02:14:00,40.1,32.8,29.94,SW,225,1.0,1.0,75,0.00,,,0.00,Wunderground v.1.15,2013-02-05 07:14:00,
2013-02-05 02:20:00,40.1,33.5,29.95,SW,225,0.0,0.0,77,0.00,,,0.00,Wunderground v.1.15,2013-02-05 07:20:00,
2013-02-05 02:25:00,39.7,33.7,29.94,SW,225,0.0,1.0,79,0.00,,,0.00,Wunderground v.1.15,2013-02-05 07:25:00,
2013-02-05 02:31:00,39.1,34.4,29.94,SW,225,0.0,0.0,83,0.00,,,0.00,Wunderground v.1.15,2013-02-05 07:31:00,
2013-02-05 02:36:00,38.7,34.6,29.94,SW,225,0.0,0.0,85,0.00,,,0.00,Wunderground v.1.15,2013-02-05 07:36:00,
2013-02-05 02:42:00,38.4,34.6,29.94,SW,225,0.0,0.0,86,0.00,,,0.00,Wunderground v.1.15,2013-02-05 07:42:00,
2013-02-05 02:47:00,38.6,34.8,29.94,SW,225,0.0,0.0,86,0.00,,,0.00,Wunderground v.1.15,2013-02-05 07:47:00,
2013-02-05 02:53:00,38.7,34.9,29.94,SW,225,0.0,0.0,86,0.00,,,0.00,Wunderground v.1.15,2013-02-05 07:53:00,
2013-02-05 02:58:00,39.0,34.3,29.94,West,277,1.0,2.0,83,0.00,,,0.00,Wunderground v.1.15,2013-02-05 07:58:00,
2013-02-05 03:04:00,39.5,33.8,29.94,NW,311,2.0,4.0,80,0.00,,,0.00,Wunderground v.1.15,2013-02-05 08:04:00,
2013-02-05 03:09:00,39.7,33.7,29.94,NW,320,2.0,4.0,79,0.00,,,0.00,Wunderground v.1.15,2013-02-05 08:09:00,
2013-02-05 03:14:00,39.8,33.2,29.94,West,261,2.0,2.0,77,0.00,,,0.00,Wunderground v.1.15,2013-02-05 08:14:00,
2013-02-05 03:20:00,40.6,33.0,29.94,NW,317,2.0,2.0,74,0.00,,,0.00,Wunderground v.1.15,2013-02-05 08:20:00,
2013-02-05 03:25:00,40.8,33.2,29.94,NW,317,1.0,2.0,74,0.00,,,0.00,Wunderground v.1.15,2013-02-05 08:25:00,
2013-02-05 03:31:00,41.0,33.0,29.94,West,278,1.0,1.0,73,0.00,,,0.00,Wunderground v.1.15,2013-02-05 08:31:00,
2013-02-05 03:36:00,40.9,32.9,29.94,West,278,1.0,1.0,73,0.00,,,0.00,Wunderground v.1.15,2013-02-05 08:36:00,
2013-02-05 03:42:00,41.0,33.0,29.94,West,278,0.0,0.0,73,0.00,,,0.00,Wunderground v.1.15,2013-02-05 08:42:00,
2013-02-05 03:47:00,40.9,32.9,29.94,West,278,0.0,0.0,73,0.00,,,0.00,Wunderground v.1.15,2013-02-05 08:47:00,
2013-02-05 03:52:00,40.8,33.8,29.94,West,278,0.0,1.0,76,0.00,,,0.00,Wunderground v.1.15,2013-02-05 08:52:00,
2013-02-05 03:58:00,39.8,34.1,29.94,West,278,0.0,1.0,80,0.00,,,0.00,Wunderground v.1.15,2013-02-05 08:58:00,
2013-02-05 04:03:00,39.6,33.6,29.94,West,278,0.0,0.0,79,0.00,,,0.00,Wunderground v.1.15,2013-02-05 09:03:00,
2013-02-05 04:08:00,39.7,33.7,29.95,West,278,0.0,1.0,79,0.00,,,0.00,Wunderground v.1.15,2013-02-05 09:08:00,
2013-02-05 04:14:00,39.8,33.5,29.95,West,278,0.0,0.0,78,0.00,,,0.00,Wunderground v.1.15,2013-02-05 09:14:00,
2013-02-05 04:19:00,39.9,33.6,29.95,West,278,0.0,1.0,78,0.00,,,0.00,Wunderground v.1.15,2013-02-05 09:19:00,
2013-02-05 04:25:00,40.0,33.4,29.95,West,278,0.0,1.0,77,0.00,,,0.00,Wunderground v.1.15,2013-02-05 09:25:00,
2013-02-05 04:30:00,40.1,33.5,29.95,West,278,0.0,1.0,77,0.00,,,0.00,Wunderground v.1.15,2013-02-05 09:30:00,
2013-02-05 04:36:00,40.2,33.6,29.94,West,278,0.0,1.0,77,0.00,,,0.00,Wunderground v.1.15,2013-02-05 09:36:00,
2013-02-05 04:41:00,39.9,33.9,29.94,West,278,0.0,0.0,79,0.00,,,0.00,Wunderground v.1.15,2013-02-05 09:41:00,
2013-02-05 04:46:00,39.7,34.7,29.94,West,278,0.0,0.0,82,0.00,,,0.00,Wunderground v.1.15,2013-02-05 09:46:00,
2013-02-05 04:51:00,39.6,35.2,29.95,West,278,0.0,0.0,84,0.00,,,0.00,Wunderground v.1.15,2013-02-05 09:51:00,
2013-02-05 04:57:00,39.6,35.2,29.94,West,278,0.0,0.0,84,0.00,,,0.00,Wunderground v.1.15,2013-02-05 09:57:00,
2013-02-05 05:02:00,39.6,35.2,29.94,West,278,0.0,0.0,84,0.00,,,0.00,Wunderground v.1.15,2013-02-05 10:02:00,
2013-02-05 05:08:00,40.0,34.3,29.94,West,277,0.0,0.0,80,0.00,,,0.00,Wunderground v.1.15,2013-02-05 10:08:00,
2013-02-05 05:13:00,40.2,34.8,29.94,West,277,0.0,0.0,81,0.00,,,0.00,Wunderground v.1.15,2013-02-05 10:13:00,
2013-02-05 05:18:00,40.1,35.0,29.95,West,277,0.0,2.0,82,0.00,,,0.00,Wunderground v.1.15,2013-02-05 10:18:00,
2013-02-05 05:24:00,40.0,34.6,29.95,West,277,1.0,1.0,81,0.00,,,0.00,Wunderground v.1.15,2013-02-05 10:24:00,
2013-02-05 05:29:00,40.4,34.1,29.95,West,277,1.0,1.0,78,0.00,,,0.00,Wunderground v.1.15,2013-02-05 10:29:00,
2013-02-05 05:35:00,41.1,33.1,29.95,West,277,1.0,1.0,73,0.00,,,0.00,Wunderground v.1.15,2013-02-05 10:35:00,
2013-02-05 05:40:00,41.3,33.0,29.95,West,277,0.0,0.0,72,0.00,,,0.00,Wunderground v.1.15,2013-02-05 10:40:00,
2013-02-05 05:45:00,41.0,33.7,29.95,West,277,0.0,1.0,75,0.00,,,0.00,Wunderground v.1.15,2013-02-05 10:45:00,
2013-02-05 05:51:00,40.7,34.0,29.96,West,277,0.0,2.0,77,0.00,,,0.00,Wunderground v.1.15,2013-02-05 10:51:00,
2013-02-05 05:56:00,40.9,33.6,29.96,WSW,254,1.0,2.0,75,0.00,,,0.00,Wunderground v.1.15,2013-02-05 10:56:00,
2013-02-05 06:02:00,41.4,33.4,29.96,WNW,295,1.0,1.0,73,0.00,,,0.00,Wunderground v.1.15,2013-02-05 11:02:00,
2013-02-05 06:07:00,41.5,33.1,29.95,West,278,1.0,3.0,72,0.00,,,0.00,Wunderground v.1.15,2013-02-05 11:07:00,
2013-02-05 06:13:00,41.7,33.3,29.95,SW,234,1.0,2.0,72,0.00,,,0.00,Wunderground v.1.15,2013-02-05 11:13:00,
2013-02-05 06:18:00,41.9,33.5,29.95,SSW,210,2.0,7.0,72,0.00,,,0.00,Wunderground v.1.15,2013-02-05 11:18:00,
2013-02-05 06:24:00,41.8,34.1,29.95,SW,225,3.0,3.0,74,0.00,,,0.00,Wunderground v.1.15,2013-02-05 11:24:00,
2013-02-05 06:29:00,41.9,34.2,29.95,SSW,192,3.0,4.0,74,0.00,,,0.00,Wunderground v.1.15,2013-02-05 11:29:00,
2013-02-05 06:34:00,42.6,34.2,29.96,SW,228,4.0,6.0,72,0.00,,,0.00,Wunderground v.1.15,2013-02-05 11:34:00,
2013-02-05 06:40:00,43.2,34.4,29.96,SSW,198,5.0,5.0,71,0.00,,,0.00,Wunderground v.1.15,2013-02-05 11:40:00,
2013-02-05 06:45:00,43.4,34.6,29.96,SW,217,4.0,6.0,71,0.00,,,0.00,Wunderground v.1.15,2013-02-05 11:45:00,
2013-02-05 06:51:00,43.5,35.4,29.96,SSW,194,4.0,8.0,73,0.00,,,0.00,Wunderground v.1.15,2013-02-05 11:51:00,
2013-02-05 06:57:00,43.7,36.3,29.96,SW,227,5.0,8.0,75,0.00,,,0.00,Wunderground v.1.15,2013-02-05 11:57:00,
2013-02-05 07:02:00,43.8,36.4,29.96,SW,217,5.0,7.0,75,0.00,,,0.00,Wunderground v.1.15,2013-02-05 12:02:00,
2013-02-05 07:07:00,43.8,36.7,29.96,SW,229,4.0,7.0,76,0.00,,,0.00,Wunderground v.1.15,2013-02-05 12:07:00,
2013-02-05 07:13:00,43.7,37.0,29.96,SSW,210,4.0,4.0,77,0.00,,,0.00,Wunderground v.1.15,2013-02-05 12:13:00,
2013-02-05 07:18:00,43.7,37.0,29.96,SW,227,4.0,5.0,77,0.00,,,0.00,Wunderground v.1.15,2013-02-05 12:18:00,
2013-02-05 07:23:00,43.6,36.9,29.96,WSW,237,4.0,6.0,77,0.00,,,0.00,Wunderground v.1.15,2013-02-05 12:23:00,
2013-02-05 07:29:00,43.5,37.1,29.96,SW,234,4.0,6.0,78,0.00,,,0.00,Wunderground v.1.15,2013-02-05 12:29:00,
2013-02-05 07:34:00,43.4,37.0,29.96,WSW,237,4.0,6.0,78,0.00,,,0.00,Wunderground v.1.15,2013-02-05 12:34:00,
2013-02-05 07:40:00,43.3,37.2,29.96,SW,235,3.0,4.0,79,0.00,,,0.00,Wunderground v.1.15,2013-02-05 12:40:00,
2013-02-05 07:45:00,43.1,37.0,29.96,SSW,213,4.0,6.0,79,0.00,,,0.00,Wunderground v.1.15,2013-02-05 12:45:00,
2013-02-05 07:51:00,43.1,37.3,29.97,SW,227,4.0,6.0,80,0.00,,,0.00,Wunderground v.1.15,2013-02-05 12:51:00,
2013-02-05 07:56:00,43.1,37.3,29.97,SW,215,4.0,6.0,80,0.00,,,0.00,Wunderground v.1.15,2013-02-05 12:56:00,
2013-02-05 08:02:00,43.1,37.3,29.97,SSW,213,4.0,5.0,80,0.00,,,0.00,Wunderground v.1.15,2013-02-05 13:02:00,
2013-02-05 08:07:00,43.1,37.3,29.97,WSW,257,4.0,5.0,80,0.00,,,0.00,Wunderground v.1.15,2013-02-05 13:07:00,
2013-02-05 08:12:00,43.2,37.4,29.97,SW,223,4.0,5.0,80,0.00,,,0.00,Wunderground v.1.15,2013-02-05 13:12:00,
2013-02-05 08:17:00,43.3,37.5,29.97,West,259,4.0,5.0,80,0.00,,,0.00,Wunderground v.1.15,2013-02-05 13:17:00,
2013-02-05 18:54:00,51.0,39.2,29.93,SW,225,2.0,2.0,64,0.00,,,0.00,Wunderground v.1.15,2013-02-05 23:54:00,
2013-02-05 19:00:00,51.2,39.4,29.93,SW,221,1.0,1.0,64,0.00,,,0.00,Wunderground v.1.15,2013-02-06 00:00:00,
2013-02-05 19:06:00,50.9,39.1,29.94,SSW,211,1.0,2.0,64,0.00,,,0.00,Wunderground v.1.15,2013-02-06 00:06:00,
2013-02-05 19:11:00,50.8,39.5,29.94,SSW,212,1.0,1.0,65,0.00,,,0.00,Wunderground v.1.15,2013-02-06 00:11:00,
2013-02-05 19:16:00,50.8,39.5,29.94,SSW,213,1.0,1.0,65,0.00,,,0.00,Wunderground v.1.15,2013-02-06 00:16:00,
2013-02-05 19:22:00,50.8,39.5,29.94,SSW,213,1.0,2.0,65,0.00,,,0.00,Wunderground v.1.15,2013-02-06 00:22:00,
2013-02-05 19:28:00,50.7,39.7,29.94,SSW,213,1.0,2.0,66,0.00,,,0.00,Wunderground v.1.15,2013-02-06 00:28:00,
2013-02-05 19:34:00,50.5,39.6,29.95,SSW,213,1.0,2.0,66,0.00,,,0.00,Wunderground v.1.15,2013-02-06 00:34:00,
2013-02-05 19:39:00,50.3,39.4,29.95,SSW,213,1.0,2.0,66,0.00,,,0.00,Wunderground v.1.15,2013-02-06 00:39:00,
2013-02-05 19:44:00,49.5,39.0,29.95,SSW,213,0.0,1.0,67,0.00,,,0.00,Wunderground v.1.15,2013-02-06 00:44:00,
2013-02-05 19:50:00,48.7,38.6,29.95,SSW,213,0.0,0.0,68,0.00,,,0.00,Wunderground v.1.15,2013-02-06 00:50:00,
2013-02-05 19:55:00,48.1,38.8,29.95,SSW,213,1.0,2.0,70,0.00,,,0.00,Wunderground v.1.15,2013-02-06 00:55:00,
2013-02-05 20:01:00,48.1,38.8,29.96,SSW,213,1.0,1.0,70,0.00,,,0.00,Wunderground v.1.15,2013-02-06 01:01:00,
2013-02-05 20:06:00,48.0,38.7,29.96,SW,229,1.0,2.0,70,0.00,,,0.00,Wunderground v.1.15,2013-02-06 01:06:00,
2013-02-05 20:11:00,47.9,38.9,29.96,SW,229,1.0,1.0,71,0.00,,,0.00,Wunderground v.1.15,2013-02-06 01:11:00,
2013-02-05 20:16:00,48.2,39.2,29.96,SW,230,0.0,3.0,71,0.00,,,0.00,Wunderground v.1.15,2013-02-06 01:16:00,
2013-02-05 20:22:00,48.0,39.0,29.96,SW,230,0.0,1.0,71,0.00,,,0.00,Wunderground v.1.15,2013-02-06 01:22:00,
2013-02-05 20:27:00,48.1,39.1,29.96,SW,232,0.0,1.0,71,0.00,,,0.00,Wunderground v.1.15,2013-02-06 01:27:00,
2013-02-05 20:33:00,47.9,38.9,29.96,SW,232,0.0,2.0,71,0.00,,,0.00,Wunderground v.1.15,2013-02-06 01:33:00,
2013-02-05 20:39:00,47.8,39.2,29.96,WSW,244,1.0,2.0,72,0.00,,,0.00,Wunderground v.1.15,2013-02-06 01:39:00,
2013-02-05 20:44:00,47.9,39.3,29.97,WSW,252,1.0,2.0,72,0.00,,,0.00,Wunderground v.1.15,2013-02-06 01:44:00,
2013-02-05 20:50:00,47.9,39.3,29.96,SW,232,2.0,2.0,72,0.00,,,0.00,Wunderground v.1.15,2013-02-06 01:50:00,
2013-02-05 20:55:00,47.6,39.0,29.97,WSW,243,1.0,2.0,72,0.00,,,0.00,Wunderground v.1.15,2013-02-06 01:55:00,
2013-02-05 21:01:00,47.5,39.3,29.97,WSW,238,1.0,3.0,73,0.00,,,0.00,Wunderground v.1.15,2013-02-06 02:01:00,
2013-02-05 21:06:00,47.6,39.4,29.97,SW,223,2.0,3.0,73,0.00,,,0.00,Wunderground v.1.15,2013-02-06 02:06:00,
2013-02-05 21:12:00,47.0,38.8,29.97,SW,223,2.0,2.0,73,0.00,,,0.00,Wunderground v.1.15,2013-02-06 02:12:00,
2013-02-05 21:17:00,46.3,38.8,29.97,SW,234,1.0,2.0,75,0.00,,,0.00,Wunderground v.1.15,2013-02-06 02:17:00,
2013-02-05 21:23:00,45.8,38.7,29.97,NW,312,1.0,4.0,76,0.00,,,0.00,Wunderground v.1.15,2013-02-06 02:23:00,
2013-02-05 21:28:00,46.3,39.1,29.97,WSW,254,2.0,4.0,76,0.00,,,0.00,Wunderground v.1.15,2013-02-06 02:28:00,
2013-02-05 21:34:00,46.1,38.6,29.97,WNW,297,2.0,3.0,75,0.00,,,0.00,Wunderground v.1.15,2013-02-06 02:34:00,
2013-02-05 21:40:00,45.6,38.5,29.98,WNW,296,1.0,1.0,76,0.00,,,0.00,Wunderground v.1.15,2013-02-06 02:40:00,
2013-02-05 21:45:00,43.5,36.4,29.98,SSE,161,1.0,3.0,76,0.00,,,0.00,Wunderground v.1.15,2013-02-06 02:45:00,
2013-02-05 21:51:00,41.6,36.5,29.98,SSE,161,1.0,2.0,82,0.00,,,0.00,Wunderground v.1.15,2013-02-06 02:51:00,
2013-02-05 21:57:00,40.6,36.4,29.98,SSE,161,0.0,2.0,85,0.00,,,0.00,Wunderground v.1.15,2013-02-06 02:57:00,
2013-02-05 22:02:00,41.0,37.1,29.98,SSE,161,0.0,1.0,86,0.00,,,0.00,Wunderground v.1.15,2013-02-06 03:02:00,
2013-02-05 22:08:00,42.7,38.8,29.98,SSW,211,1.0,2.0,86,0.00,,,0.00,Wunderground v.1.15,2013-02-06 03:08:00,
2013-02-05 22:14:00,44.9,39.4,29.99,SW,232,1.0,2.0,81,0.00,,,0.00,Wunderground v.1.15,2013-02-06 03:14:00,
2013-02-05 22:19:00,45.5,39.4,29.99,WSW,248,1.0,3.0,79,0.00,,,0.00,Wunderground v.1.15,2013-02-06 03:19:00,
2013-02-05 22:24:00,46.3,39.8,29.99,SW,220,2.0,4.0,78,0.00,,,0.00,Wunderground v.1.15,2013-02-06 03:24:00,
2013-02-05 22:30:00,45.3,38.2,29.99,SW,218,1.0,1.0,76,0.00,,,0.00,Wunderground v.1.15,2013-02-06 03:30:00,
2013-02-05 22:35:00,43.9,38.1,29.99,SW,218,1.0,1.0,80,0.00,,,0.00,Wunderground v.1.15,2013-02-06 03:35:00,
2013-02-05 22:40:00,44.4,38.6,29.99,SSW,206,0.0,1.0,80,0.00,,,0.00,Wunderground v.1.15,2013-02-06 03:40:00,
2013-02-05 22:46:00,44.3,38.5,29.99,SSW,211,1.0,2.0,80,0.00,,,0.00,Wunderground v.1.15,2013-02-06 03:46:00,
2013-02-05 22:51:00,43.9,38.1,29.99,SSW,213,0.0,0.0,80,0.00,,,0.00,Wunderground v.1.15,2013-02-06 03:51:00,
2013-02-05 22:57:00,44.1,38.6,29.99,West,273,0.0,2.0,81,0.00,,,0.00,Wunderground v.1.15,2013-02-06 03:57:00,
2013-02-05 23:02:00,44.1,38.6,29.99,West,263,1.0,2.0,81,0.00,,,0.00,Wunderground v.1.15,2013-02-06 04:02:00,
2013-02-05 23:07:00,44.5,39.3,29.99,West,273,2.0,4.0,82,0.00,,,0.00,Wunderground v.1.15,2013-02-06 04:07:00,
2013-02-05 23:13:00,45.4,39.6,29.99,WSW,247,3.0,5.0,80,0.00,,,0.00,Wunderground v.1.15,2013-02-06 04:13:00,
2013-02-05 23:19:00,45.6,39.5,29.99,SW,216,3.0,5.0,79,0.00,,,0.00,Wunderground v.1.15,2013-02-06 04:19:00,
2013-02-05 23:24:00,45.8,39.7,29.99,WSW,240,3.0,5.0,79,0.00,,,0.00,Wunderground v.1.15,2013-02-06 04:24:00,
2013-02-05 23:29:00,46.1,39.9,29.99,WSW,252,4.0,5.0,79,0.00,,,0.00,Wunderground v.1.15,2013-02-06 04:29:00,
2013-02-05 23:34:00,46.4,39.9,30.00,SW,236,4.0,7.0,78,0.00,,,0.00,Wunderground v.1.15,2013-02-06 04:34:00,
2013-02-05 23:40:00,46.5,40.0,30.00,WSW,256,3.0,7.0,78,0.00,,,0.00,Wunderground v.1.15,2013-02-06 04:40:00,
2013-02-05 23:45:00,45.8,39.3,30.00,WNW,292,3.0,7.0,78,0.00,,,0.00,Wunderground v.1.15,2013-02-06 04:45:00,
2013-02-05 23:51:00,45.8,40.0,30.00,SW,232,4.0,4.0,80,0.00,,,0.00,Wunderground v.1.15,2013-02-06 04:51:00,
2013-02-05 23:56:00,46.4,40.9,30.00,WNW,298,4.0,4.0,81,0.00,,,0.00,Wunderground v.1.15,2013-02-06 04:56:00,